Location: *
(50.3440°N, 18.6237°E)
Time: 17:48:46
(UTC+00:00)

Cosmos 405 Rocket - Pass Details

Date: 30 November 2020
Orbit: 489 x 553 km, 81.3° (Epoch: 17 January)

Event Time Altitude Azimuth Distance (km) Brightness Sun altitude
Rises 15:17:13 0° 344° (NNW) 2,680 6.2 -5.2°
Reaches altitude 10° 15:19:22 10° 340° (NNW) 1,796 5.4 -5.5°
Maximum altitude 15:23:15 57° 262° (W) 641 3.6 -6.0°
Drops below altitude 10° 15:27:11 10° 184° (S) 1,812 5.9 -6.6°
Sets 15:29:22 0° 180° (S) 2,707 6.7 -6.9°
